Date,TemperatureHighF,TemperatureAvgF,TemperatureLowF,DewpointHighF,DewpointAvgF,DewpointLowF,HumidityHigh,HumidityAvg,HumidityLow,PressureMaxIn,PressureMinIn,WindSpeedMaxMPH,WindSpeedAvgMPH,GustSpeedMaxMPH,PrecipitationSumIn
2013-3-1,85.0,63.9,47.0,27.0,19.9,16.0,33,21,8,0.00,40.00,5,2,13,0.00
2013-3-2,86.0,67.3,53.0,27.0,20.9,16.0,27,18,8,0.00,40.00,9,4,17,0.00
2013-3-3,75.0,60.7,50.0,36.0,25.5,19.0,59,28,13,0.00,40.00,6,2,16,0.00
2013-3-4,72.0,53.4,40.0,44.0,40.7,35.0,92,65,33,0.00,40.00,5,1,11,0.00
2013-3-5,76.0,55.0,41.0,48.0,42.6,34.0,97,68,33,0.00,40.00,7,3,14,0.00
2013-3-6,64.0,52.6,44.0,48.0,42.1,38.0,98,71,40,0.00,40.00,7,2,13,0.00
2013-3-7,55.0,47.7,41.0,48.0,42.7,35.0,97,83,68,0.00,40.00,7,2,13,0.01
2013-3-8,48.0,42.7,39.0,44.0,39.5,35.0,96,88,68,0.00,40.00,6,2,22,1.14
2013-3-9,58.0,47.4,41.0,46.0,42.0,39.0,97,83,50,0.00,40.00,2,0,7,0.19
2013-3-10,75.0,56.6,37.0,41.0,32.6,27.0,95,48,17,0.00,40.00,9,4,14,0.00
2013-3-11,79.0,61.0,45.0,34.0,27.0,20.0,48,30,12,0.00,40.00,8,2,14,0.00
2013-3-12,87.0,66.6,50.0,40.0,30.6,23.0,43,28,12,0.00,40.00,11,3,17,0.00
2013-3-13,92.0,73.0,57.0,40.0,31.3,24.0,34,23,11,0.00,40.00,8,3,18,0.00
2013-3-14,94.0,73.8,61.0,41.0,33.2,27.0,35,24,11,0.00,40.00,7,3,14,0.00
2013-3-15,89.0,70.3,58.0,46.0,34.5,28.0,39,28,13,0.00,40.00,7,2,13,0.00
2013-3-16,82.0,65.1,50.0,47.0,34.3,24.0,86,37,14,0.00,40.00,7,2,15,0.00
2013-3-17,78.0,59.1,40.0,50.0,43.7,38.0,95,63,25,0.00,40.00,5,2,13,0.00
2013-3-18,74.0,56.3,43.0,50.0,45.8,40.0,100,73,34,0.00,40.00,6,2,11,0.00
2013-3-19,77.0,58.6,41.0,53.0,45.6,40.0,99,68,28,0.00,40.00,5,2,13,0.00
2013-3-20,78.0,61.0,46.0,49.0,43.9,41.0,89,58,29,0.00,40.00,7,2,14,0.00
2013-3-21,77.0,59.3,47.0,49.0,44.6,39.0,95,64,27,0.00,40.00,5,1,14,0.00
2013-3-22,78.0,58.2,44.0,49.0,45.0,37.0,100,69,23,0.00,40.00,8,2,16,0.00
2013-3-23,81.0,58.6,39.0,47.0,36.8,27.0,94,53,14,0.00,40.00,7,2,15,0.00
2013-3-24,83.0,62.8,46.0,38.0,32.1,23.0,58,36,12,0.00,40.00,7,2,14,0.00
2013-3-25,84.0,66.1,51.0,39.0,31.4,23.0,53,31,11,0.00,40.00,8,3,14,0.00
2013-3-26,79.0,63.1,50.0,37.0,31.5,19.0,51,34,11,0.00,40.00,9,3,16,0.00
2013-3-27,77.0,57.3,44.0,41.0,34.7,26.0,61,45,27,0.00,40.00,7,2,14,0.00
2013-3-28,82.0,71.6,57.0,47.0,39.3,32.0,52,34,18,0.00,40.00,8,4,15,0.00
2013-3-29,84.0,66.4,51.0,51.0,39.4,33.0,77,41,18,0.00,40.00,7,2,16,0.00
2013-3-30,83.0,65.0,51.0,52.0,43.7,-99.9,81,53,24,0.00,40.00,7,2,16,0.00
2013-3-31,72.0,58.0,45.0,49.0,42.9,36.0,81,60,35,0.00,40.00,9,3,18,0.00